Other Surface Observations
Issued by NWS Charleston, SC

Home | Current Version | Previous Version | Text Only | Print | Product List | Glossary On
Versions: 1 2 3 4 5 6 7 8 9 10 11 12 13 14 15 16 17 18 19 20 21 22 23 24 25 26 27 28 29 30 31 32 33 34 35 36 37 38 39 40 41 42 43 44 45 46 47 48 49 50
896
SXUS52 KCHS 261127
OSOCHS

MARINE OBSERVATIONS
NATIONAL WEATHER SERVICE CHARLESTON SC
700 AM EDT FRI MAY 26 2017

...DOWNTOWN CHARLESTON AND HARBOR...

CITY           SKY/WX    TMP DP  RH WIND       PRES   REMARKS
WATERFRONT PRK   N/A     65  55  70 VRB3      29.97R

...LAKE MOULTRIE...

CITY           SKY/WX    TMP DP  RH WIND       PRES   REMARKS
PINOPOLIS        N/A     63  57  82 W9        29.88R

...LAKE AND SUPPLEMENTAL COASTAL OBSERVATIONS...

STATION/POSITION TIME  TEMP    WIND        PRES    WAVE   SWELL
                       AIR SEA DIR/SP/G            HT/PER HT/PER/DIR
                 (UTC) (F)     (DEG/KT/KT) (MB)    (FT/S) (FT/S/D)
FORT PULASKI     1100   65     270/  5/  8 1016.6
SAPELO ISLAND    1100   64        CALM     1017.0
WINYAH BAY       1045   62     260/  5     1014.0S
LAKE MURRAY      1120   63     270/ 11/ 13 1014.2
ACE BASIN NERRS  1045   60        CALM     1016.0R


...C-MAN AND BUOY OBSERVATIONS...

STATION/POSITION TIME  TEMP    WIND        PRES    WAVE   SWELL
                       AIR SEA DIR/SP/G            HT/PER HT/PER/DIR
                 (UTC) (F)     (DEG/KT/KT) (MB)    (FT/S) (FT/S/D)
BUOY 41004       1110   72 74  290/ 14/ 17 1015.3
BUOY 41008       1050   72 76  290/ 10/ 12 1016.2R   2/ 7   2/100/ 7
FOLLY BEACH CMAN 1100   63     290/  5/  8 1016.1R
CAPERS NS BUOY   1108   73 76  300/ 16/ 21 1015.1R
FRIPP NS BUOY    1108   70 76  300/ 12/ 16 1015.6R
5E ST. MARYS GA  1100      78                N/A     2/ 7


STATION/POSITION TIME  TEMP    WIND        PRES    WAVE   SWELL
                       AIR SEA DIR/SP/G            HT/PER HT/PER/DIR
                 (UTC) (F)     (DEG/KT/KT) (MB)    (FT/S) (FT/S/D)
FRYING PAN BUOY  1110   73 75  270/ 19/ 23 1014.0
BUOY 41025       1050   72 78  270/ 23/ 29 1010.4R   9/ 8   7/220/ 8
CAPE LOOKOUT NC  1100   69     280/ 20/ 22 1011.9R
BUOY 41002       1050   77 76  270/ 17/ 19 1014.6R   8/ 9   3/290/ 9
BUOY 41010       1110   78 78  310/ 10/ 12 1016.0
ST AUGUSTINE FL  1100   64 74  250/  7/  9 1017.9R

$$




USA.gov is the U.S. government's official web portal to all federal, state and local government web resources and services.